Fremont, NE

2:54 PM CST on February 13, 2016 (GMT -0600)
Fremont Municipal

Weather History for KFET - November, 2014

Change the Weather History Date:

Monday, November 17, 2014

  Actual Average Record
Temperature  
Mean Temperature 11 °F -  
Max Temperature 17 °F 51 °F 72 °F (1953)
Min Temperature 5 °F 29 °F 2 °F (1959)
Degree Days  
Heating Degree Days 54    
Moisture  
Dew Point 3 °F    
Average Humidity 67    
Maximum Humidity 77    
Minimum Humidity 53    
Precipitation  
Precipitation 0.00 in - - ()
Sea Level Pressure  
Sea Level Pressure 30.21 in    
Wind  
Wind Speed 15 mph (WNW)    
Max Wind Speed 26 mph    
Max Gust Speed 33 mph    
Visibility 10 miles    
Events      
Averages and records for this station are not official NWS values.
T = Trace of Precipitation, MM = Missing Value Source: NWS Daily Summary

Daily Weather History Graph

Daily Weather History Graph

Search for Another Location

Airport or City:

Trip Planner

Search our weather history database for the weather conditions in past years. The results will help you decide how hot, cold, wet, or windy it might be!

Date:

Astronomy

Nov. 17, 2014 Rise Set
Actual Time 7:17 AM CST 5:04 PM CST
Civil Twilight 6:47 AM CST 5:34 PM CST
Nautical Twilight 6:13 AM CST 6:08 PM CST
Astronomical Twilight 5:40 AM CST 6:40 PM CST
Moon 2:16 AM CST (11/17) 2:32 PM CST (11/17)
Length of Visible Light 10h 47m
Length of Day
9h 47m
Waning Crescent, 22% of the Moon is Illuminated
Nov 17
Waning Crescent
Nov 22
New
Nov 29
First Quarter
Dec 6
Full
Dec 14
Last Quarter

Hourly Weather History & Observations

Time (CST) Temp. Windchill Dew Point Humidity Pressure Visibility Wind Dir Wind Speed Gust Speed Precip Events Conditions
12:15 AM 17.1 °F 3.0 °F 10.9 °F 77% 30.13 in 10.0 mi West 13.8 mph - N/A   Clear
12:35 AM 16.5 °F 3.0 °F 10.6 °F 77% 30.13 in 10.0 mi West 12.7 mph - N/A   Scattered Clouds
12:55 AM 15.8 °F 2.1 °F 9.9 °F 77% 30.12 in 10.0 mi West 12.7 mph - N/A   Clear
1:15 AM 15.1 °F 1.1 °F 8.8 °F 76% 30.13 in 10.0 mi West 12.7 mph - N/A   Clear
1:35 AM 13.5 °F -0.2 °F 7.3 °F 77% 30.13 in 10.0 mi West 11.5 mph - N/A   Clear
1:55 AM 14.5 °F -0.2 °F 7.7 °F 74% 30.13 in 10.0 mi West 13.8 mph - N/A   Clear
2:15 AM 14.0 °F 0.5 °F 7.5 °F 75% 30.13 in 10.0 mi WNW 11.5 mph - N/A   Clear
2:35 AM 14.5 °F -1.8 °F 8.2 °F 76% 30.14 in 10.0 mi WNW 17.3 mph - N/A   Clear
2:55 AM 16.9 °F -0.1 °F 7.9 °F 68% 30.14 in 10.0 mi WNW 20.7 mph 24.2 mph N/A   Clear
3:15 AM 16.9 °F 0.8 °F 7.5 °F 67% 30.14 in 10.0 mi WNW 18.4 mph 24.2 mph N/A   Clear
3:35 AM 16.2 °F 0.3 °F 6.6 °F 66% 30.15 in 10.0 mi WNW 17.3 mph - N/A   Clear
3:55 AM 15.4 °F -2.0 °F 5.9 °F 66% 30.16 in 10.0 mi NW 20.7 mph 26.5 mph N/A   Clear
4:15 AM 14.9 °F -2.7 °F 5.7 °F 67% 30.16 in 10.0 mi NW 20.7 mph 29.9 mph N/A   Clear
4:35 AM 13.8 °F -1.7 °F 5.0 °F 68% 30.17 in 10.0 mi WNW 15.0 mph - N/A   Clear
4:55 AM 13.5 °F -3.7 °F 5.4 °F 70% 30.18 in 10.0 mi WNW 18.4 mph - N/A   Scattered Clouds
5:15 AM 12.9 °F -5.3 °F 4.3 °F 68% 30.19 in 10.0 mi NW 20.7 mph 26.5 mph N/A   Clear
5:35 AM 12.0 °F -6.5 °F 3.6 °F 69% 30.19 in 10.0 mi NW 20.7 mph - N/A   Clear
5:55 AM 11.3 °F -6.0 °F 3.0 °F 69% 30.19 in 10.0 mi NW 17.3 mph 24.2 mph N/A   Clear
6:15 AM 10.2 °F -6.3 °F 2.3 °F 70% 30.19 in 10.0 mi NW 15.0 mph - N/A   Clear
6:35 AM 10.0 °F -7.1 °F 2.1 °F 70% 30.20 in 10.0 mi WNW 16.1 mph - N/A   Clear
6:55 AM 8.6 °F -7.0 °F 1.2 °F 72% 30.20 in 10.0 mi WNW 12.7 mph - N/A   Clear
7:15 AM 7.5 °F -8.4 °F 0.5 °F 73% 30.20 in 10.0 mi WNW 12.7 mph - N/A   Clear
7:35 AM 7.7 °F -8.2 °F 0.5 °F 72% 30.20 in 10.0 mi West 12.7 mph - N/A   Clear
7:55 AM 7.7 °F -8.2 °F 0.5 °F 72% 30.21 in 10.0 mi West 12.7 mph - N/A   Clear
8:15 AM 7.7 °F -7.4 °F 0.5 °F 72% 30.22 in 10.0 mi West 11.5 mph - N/A   Clear
8:35 AM 8.6 °F -7.7 °F 0.9 °F 71% 30.23 in 10.0 mi West 13.8 mph - N/A   Clear
8:55 AM 9.9 °F -6.1 °F 1.9 °F 70% 30.23 in 10.0 mi West 13.8 mph 19.6 mph N/A   Clear
9:15 AM 10.9 °F -5.4 °F 3.0 °F 70% 30.23 in 10.0 mi West 15.0 mph - N/A   Clear
9:35 AM 11.8 °F -5.3 °F 3.9 °F 71% 30.22 in 10.0 mi West 17.3 mph - N/A   Clear
9:55 AM 12.6 °F -4.9 °F 4.5 °F 70% 30.23 in 10.0 mi West 18.4 mph 21.9 mph N/A   Clear
10:15 AM 13.8 °F -3.2 °F 5.2 °F 69% 30.23 in 10.0 mi West 18.4 mph - N/A   Clear
10:35 AM 14.9 °F -2.7 °F 5.4 °F 66% 30.23 in 10.0 mi WNW 20.7 mph 28.8 mph N/A   Clear
10:55 AM 15.6 °F -2.2 °F 5.7 °F 65% 30.23 in 10.0 mi WNW 21.9 mph 27.6 mph N/A   Clear
11:15 AM 16.2 °F -2.6 °F 5.7 °F 64% 30.23 in 10.0 mi WNW 25.3 mph 33.4 mph N/A   Scattered Clouds
11:35 AM 16.7 °F -0.7 °F 5.9 °F 63% 30.23 in 10.0 mi NW 21.9 mph 33.4 mph N/A   Scattered Clouds
11:55 AM 16.3 °F -1.2 °F 5.7 °F 63% 30.23 in 10.0 mi NW 21.9 mph 32.2 mph N/A   Scattered Clouds
12:15 PM 16.9 °F -1.9 °F 6.4 °F 64% 30.23 in 10.0 mi WNW 26.5 mph 29.9 mph N/A   Scattered Clouds
12:35 PM 17.1 °F -0.6 °F 6.3 °F 63% 30.23 in 10.0 mi WNW 23.0 mph 28.8 mph N/A   Scattered Clouds
12:55 PM 17.6 °F 0.5 °F 5.9 °F 60% 30.22 in 10.0 mi WNW 21.9 mph 32.2 mph N/A   Scattered Clouds
1:15 PM 17.6 °F 0.1 °F 6.3 °F 61% 30.22 in 10.0 mi NW 23.0 mph 27.6 mph N/A   Scattered Clouds
1:35 PM 18.1 °F 1.6 °F 5.9 °F 59% 30.22 in 10.0 mi NW 20.7 mph - N/A   Scattered Clouds
1:55 PM 17.8 °F -0.4 °F 5.2 °F 58% 30.23 in 10.0 mi NW 25.3 mph 29.9 mph N/A   Clear
2:15 PM 16.5 °F -0.1 °F 3.7 °F 57% 30.23 in 10.0 mi NW 19.6 mph - N/A   Clear
2:35 PM 16.3 °F 0.1 °F 2.5 °F 55% 30.23 in 10.0 mi NW 18.4 mph - N/A   Clear
2:55 PM 16.0 °F 0.1 °F 2.8 °F 56% 30.24 in 10.0 mi WNW 17.3 mph 24.2 mph N/A   Clear
3:15 PM 17.4 °F 1.5 °F 3.9 °F 56% 30.24 in 10.0 mi WNW 18.4 mph - N/A   Clear
3:35 PM 17.6 °F 0.5 °F 5.0 °F 58% 30.24 in 10.0 mi WNW 21.9 mph 27.6 mph N/A   Clear
3:55 PM 17.6 °F 1.3 °F 3.6 °F 54% 30.24 in 10.0 mi NW 19.6 mph 26.5 mph N/A   Clear
4:15 PM 17.1 °F -0.3 °F 2.7 °F 53% 30.25 in 10.0 mi NW 21.9 mph - N/A   Clear
4:35 PM 16.3 °F 2.1 °F 2.8 °F 55% 30.25 in 10.0 mi WNW 13.8 mph 17.3 mph N/A   Clear
4:55 PM 15.4 °F 1.6 °F 2.3 °F 56% 30.25 in 10.0 mi WNW 12.7 mph - N/A   Clear
5:15 PM 13.6 °F 0.0 °F 2.7 °F 62% 30.26 in 10.0 mi WNW 11.5 mph - N/A   Clear
5:35 PM 12.4 °F 0.9 °F 2.1 °F 64% 30.26 in 10.0 mi WNW 8.1 mph - N/A   Clear
5:55 PM 10.9 °F -1.8 °F 1.2 °F 65% 30.26 in 10.0 mi WNW 9.2 mph - N/A   Clear
6:15 PM 10.6 °F -1.3 °F 1.0 °F 65% 30.26 in 10.0 mi West 8.1 mph - N/A   Clear
6:35 PM 11.3 °F -2.2 °F 1.0 °F 63% 30.26 in 10.0 mi West 10.4 mph - N/A   Clear
6:55 PM 12.6 °F -1.4 °F 2.1 °F 63% 30.26 in 10.0 mi West 11.5 mph - N/A   Clear
7:15 PM 11.8 °F -1.5 °F 1.4 °F 63% 30.26 in 10.0 mi West 10.4 mph - N/A   Clear
7:35 PM 10.8 °F -2.0 °F 1.0 °F 65% 30.26 in 10.0 mi West 9.2 mph - N/A   Clear
7:55 PM 9.5 °F -3.5 °F -0.2 °F 65% 30.26 in 10.0 mi WNW 9.2 mph - N/A   Clear
8:15 PM 8.1 °F -6.2 °F -0.4 °F 68% 30.26 in 10.0 mi West 10.4 mph - N/A   Clear
8:35 PM 5.7 °F -8.2 °F -2.2 °F 70% 30.26 in 10.0 mi West 9.2 mph - N/A   Clear
8:55 PM 7.0 °F -6.6 °F -1.3 °F 69% 30.25 in 10.0 mi West 9.2 mph - N/A   Clear
9:15 PM 7.0 °F -6.6 °F -1.3 °F 69% 30.25 in 10.0 mi WNW 9.2 mph - N/A   Clear
9:35 PM 6.4 °F -6.3 °F -1.5 °F 70% 30.25 in 10.0 mi West 8.1 mph - N/A   Clear
9:55 PM 5.5 °F -6.3 °F -1.8 °F 72% 30.25 in 10.0 mi West 6.9 mph - N/A   Clear
10:15 PM 9.5 °F -4.4 °F 1.2 °F 69% 30.24 in 10.0 mi West 10.4 mph - N/A   Clear
10:35 PM 9.3 °F -6.1 °F 0.5 °F 67% 30.24 in 10.0 mi West 12.7 mph - N/A   Clear
10:55 PM 9.7 °F -5.0 °F 1.2 °F 69% 30.23 in 10.0 mi West 11.5 mph - N/A   Clear
11:15 PM 9.3 °F -4.6 °F 1.4 °F 70% 30.23 in 10.0 mi West 10.4 mph - N/A   Clear
11:35 PM 9.1 °F -4.0 °F 1.4 °F 71% 30.23 in 10.0 mi West 9.2 mph - N/A   Clear
11:55 PM 6.4 °F -8.2 °F -0.8 °F 72% 30.23 in 10.0 mi West 10.4 mph - N/A   Clear